Location: Unspecified
(0.0000°N, 0.0000°E)
Time: 09:09:49
(UTC+00:00)

SEEDS - Visible Passes

Search period start: 24 March 2019 00:00
Search period end: 03 April 2019 00:00
Orbit: 586 x 605 km, 97.5° (Epoch: 23 March)

Date Brightness Start Highest point End Pass type
(mag) Time Alt. Az. Time Alt. Az. Time Alt. Az.
24 Mar ? 05:14:17 10° ENE 05:16:54 16° ESE 05:19:31 10° SE visible
24 Mar ? 18:54:37 10° SW 18:57:12 16° WSW 18:59:46 10° WNW visible
25 Mar ? 05:23:19 10° NE 05:26:35 23° ESE 05:29:51 10° SSE visible
25 Mar ? 19:05:34 10° WSW 19:06:53 11° WSW 19:08:13 10° W visible
26 Mar ? 05:32:36 10° NE 05:36:16 31° ESE 05:39:58 10° SSE visible
27 Mar ? 05:42:02 10° NNE 05:45:58 44° ESE 05:49:56 10° S visible
31 Mar ? 18:25:46 10° S 18:29:42 37° WSW 18:33:36 10° NNW visible
01 Apr ? 18:35:48 10° SSW 18:39:23 27° WSW 18:42:57 10° NW visible
02 Apr ? 05:06:49 10° ENE 05:08:45 13° ESE 05:10:42 10° SE visible
02 Apr ? 18:46:00 10° SSW 18:49:04 20° WSW 18:52:08 10° NW visible
